When you browse on this site, cookies collect data to enhance your experience and personalize the content and advertising you see.
Visit our Privacy Policy to learn more. By continuing to use the site, you agree to this use of cookies and data.
  • In United Kingdom
  • List of Countries
  • For 7 days
  • Water Temperature
  • Weather Map
  • Weather Widgets
  • user-avatar
    Login

    Hourly Weather Berat

    Today, 15 November, Friday

    Time Temperature Precipitation Wind Pressure Humidity
    00:00 +13°C° 0 mm 2 mps 742 mmHg 83%
    01:00 +13°C° 0 mm 2 mps 742 mmHg 83%
    02:00 +13°C° 0 mm 2 mps 742 mmHg 82%
    03:00 +13°C° 0 mm 2 mps 742 mmHg 81%
    04:00 +13°C° 0 mm 2 mps 742 mmHg 81%
    05:00 +13°C° 0 mm 2 mps 742 mmHg 80%
    06:00 +13°C° 0 mm 2 mps 743 mmHg 79%
    07:00 +12°C° 0 mm 3 mps 743 mmHg 79%
    08:00 +14°C° 0 mm 3 mps 744 mmHg 74%
    09:00 +17°C° 0 mm 3 mps 744 mmHg 69%
    10:00 +19°C° 0 mm 3 mps 744 mmHg 64%
    11:00 +19°C° 0 mm 3 mps 744 mmHg 63%
    12:00 +20°C° 0 mm 3 mps 744 mmHg 62%
    13:00 +20°C° 0 mm 3 mps 744 mmHg 62%
    14:00 +19°C° 0 mm 3 mps 744 mmHg 67%
    15:00 +18°C° 0 mm 2 mps 744 mmHg 72%
    16:00 +18°C° 0 mm 2 mps 744 mmHg 77%
    17:00 +17°C° 0 mm 2 mps 745 mmHg 79%
    18:00 +16°C° 0 mm 2 mps 745 mmHg 82%
    19:00 +14°C° 0 mm 3 mps 745 mmHg 85%
    20:00 +14°C° 0 mm 3 mps 746 mmHg 85%
    21:00 +14°C° 0 mm 3 mps 746 mmHg 85%
    22:00 +13°C° 0 mm 3 mps 746 mmHg 85%
    23:00 +13°C° 0 mm 3 mps 746 mmHg 84%

    Tomorrow, 16 November, Saturday

    Time Temperature Precipitation Wind Pressure Humidity
    00:00 +14°C° 0 mm 2 mps 746 mmHg 84%
    01:00 +14°C° 0 mm 2 mps 746 mmHg 83%
    02:00 +14°C° 0 mm 2 mps 746 mmHg 83%
    03:00 +14°C° 0 mm 2 mps 746 mmHg 83%
    04:00 +14°C° 0 mm 2 mps 746 mmHg 83%
    05:00 +14°C° 0 mm 2 mps 746 mmHg 83%
    06:00 +14°C° 0 mm 2 mps 747 mmHg 83%
    07:00 +14°C° 0 mm 2 mps 747 mmHg 83%
    08:00 +15°C° 0 mm 2 mps 747 mmHg 78%
    09:00 +17°C° 0 mm 2 mps 747 mmHg 72%
    10:00 +18°C° 0 mm 2 mps 747 mmHg 67%
    11:00 +19°C° 0 mm 2 mps 747 mmHg 63%
    12:00 +20°C° 0 mm 2 mps 747 mmHg 60%
    13:00 +20°C° 0 mm 2 mps 746 mmHg 56%
    14:00 +19°C° 0 mm 2 mps 746 mmHg 61%
    15:00 +18°C° 0 mm 2 mps 746 mmHg 65%
    16:00 +18°C° 0 mm 2 mps 745 mmHg 70%
    17:00 +17°C° 0 mm 2 mps 745 mmHg 72%
    18:00 +16°C° 0 mm 2 mps 746 mmHg 74%
    19:00 +16°C° 0 mm 2 mps 746 mmHg 76%
    20:00 +15°C° 0 mm 2 mps 746 mmHg 76%
    21:00 +15°C° 0 mm 2 mps 746 mmHg 77%
    22:00 +15°C° 0 mm 2 mps 746 mmHg 77%
    23:00 +14°C° 0 mm 2 mps 745 mmHg 77%

    Day after tomorrow, 17 November, Sunday

    Time Temperature Precipitation Wind Pressure Humidity
    00:00 +14°C° 0 mm 2 mps 745 mmHg 76%
    01:00 +14°C° 0 mm 2 mps 745 mmHg 76%
    02:00 +14°C° 0 mm 2 mps 745 mmHg 75%
    03:00 +14°C° 0 mm 2 mps 744 mmHg 75%
    04:00 +14°C° 0 mm 2 mps 744 mmHg 74%
    05:00 +14°C° 0 mm 2 mps 744 mmHg 74%
    06:00 +13°C° 0 mm 3 mps 744 mmHg 74%
    07:00 +13°C° 0 mm 3 mps 744 mmHg 75%
    08:00 +14°C° 0 mm 3 mps 744 mmHg 71%
    09:00 +17°C° 0 mm 3 mps 744 mmHg 67%
    10:00 +18°C° 0 mm 3 mps 744 mmHg 63%
    11:00 +19°C° 0 mm 3 mps 744 mmHg 59%
    12:00 +20°C° 0 mm 3 mps 743 mmHg 55%
    13:00 +21°C° 0 mm 3 mps 743 mmHg 51%
    14:00 +20°C° 0 mm 2 mps 743 mmHg 56%
    15:00 +19°C° 0 mm 2 mps 742 mmHg 60%
    16:00 +18°C° 0 mm 2 mps 742 mmHg 65%
    17:00 +17°C° 0 mm 2 mps 742 mmHg 67%
    18:00 +16°C° 0 mm 3 mps 742 mmHg 69%
    19:00 +16°C° 0 mm 3 mps 742 mmHg 71%
    20:00 +16°C° 0 mm 3 mps 742 mmHg 71%
    21:00 +16°C° 0 mm 3 mps 742 mmHg 71%
    22:00 +16°C° 0 mm 3 mps 742 mmHg 71%
    23:00 +14°C° 4.6 mm 3 mps 742 mmHg 79%

    18 November, Monday

    Time Temperature Precipitation Wind Pressure Humidity
    00:00 +15°C° 4.6 mm 2 mps 742 mmHg 86%
    01:00 +14°C° 4.6 mm 2 mps 742 mmHg 93%
    02:00 +14°C° 2.3 mm 2 mps 743 mmHg 91%
    03:00 +14°C° 2.3 mm 2 mps 743 mmHg 89%
    04:00 +13°C° 2.3 mm 2 mps 743 mmHg 87%
    05:00 +13°C° 0 mm 2 mps 744 mmHg 86%
    06:00 +13°C° 0 mm 2 mps 744 mmHg 86%
    07:00 +13°C° 0 mm 2 mps 744 mmHg 85%
    08:00 +14°C° 0 mm 2 mps 745 mmHg 79%
    09:00 +16°C° 0 mm 2 mps 745 mmHg 72%
    10:00 +17°C° 0 mm 2 mps 746 mmHg 66%
    11:00 +18°C° 0 mm 2 mps 746 mmHg 63%
    12:00 +18°C° 0 mm 2 mps 746 mmHg 60%
    13:00 +19°C° 0 mm 2 mps 746 mmHg 57%
    14:00 +19°C° 0 mm 1 mps 746 mmHg 63%
    15:00 +18°C° 0 mm 1 mps 746 mmHg 69%
    16:00 +16°C° 0 mm 1 mps 746 mmHg 75%
    17:00 +15°C° 0 mm 1 mps 746 mmHg 77%
    18:00 +15°C° 0 mm 1 mps 746 mmHg 79%
    19:00 +14°C° 0 mm 1 mps 746 mmHg 81%
    20:00 +14°C° 0 mm 1 mps 746 mmHg 81%
    21:00 +14°C° 0 mm 1 mps 746 mmHg 80%
    22:00 +13°C° 0 mm 1 mps 747 mmHg 79%
    23:00 +13°C° 0 mm 2 mps 746 mmHg 79%

    19 November, Tuesday

    Time Temperature Precipitation Wind Pressure Humidity
    00:00 +13°C° 0 mm 2 mps 746 mmHg 78%
    01:00 +13°C° 0 mm 2 mps 746 mmHg 78%
    02:00 +12°C° 0 mm 2 mps 746 mmHg 78%
    03:00 +12°C° 0 mm 2 mps 746 mmHg 77%
    04:00 +12°C° 0 mm 2 mps 746 mmHg 77%
    05:00 +12°C° 0 mm 2 mps 746 mmHg 78%
    06:00 +12°C° 0 mm 2 mps 746 mmHg 79%
    07:00 +12°C° 0 mm 2 mps 747 mmHg 80%
    08:00 +14°C° 0 mm 2 mps 747 mmHg 75%
    09:00 +15°C° 0 mm 2 mps 747 mmHg 70%
    10:00 +17°C° 0 mm 2 mps 747 mmHg 64%
    11:00 +18°C° 0 mm 2 mps 746 mmHg 62%
    12:00 +18°C° 0 mm 2 mps 746 mmHg 60%
    13:00 +19°C° 0 mm 2 mps 745 mmHg 58%
    14:00 +18°C° 0 mm 2 mps 745 mmHg 63%
    15:00 +17°C° 0 mm 2 mps 745 mmHg 67%
    16:00 +16°C° 0 mm 2 mps 744 mmHg 72%
    17:00 +16°C° 0 mm 2 mps 744 mmHg 73%
    18:00 +15°C° 0 mm 2 mps 744 mmHg 74%
    19:00 +15°C° 0 mm 2 mps 744 mmHg 75%
    20:00 +14°C° 1.8 mm 1 mps 744 mmHg 81%
    21:00 +14°C° 1.8 mm 1 mps 744 mmHg 87%
    22:00 +14°C° 1.8 mm 1 mps 744 mmHg 93%
    23:00 +14°C° 1.2 mm 1 mps 744 mmHg 92%

    20 November, Wednesday

    Time Temperature Precipitation Wind Pressure Humidity
    00:00 +14°C° 1.2 mm 1 mps 744 mmHg 91%
    01:00 +13°C° 1.2 mm 1 mps 744 mmHg 90%
    02:00 +13°C° 0.1 mm 1 mps 744 mmHg 89%
    03:00 +13°C° 0.1 mm 2 mps 744 mmHg 89%
    04:00 +12°C° 0.1 mm 2 mps 744 mmHg 88%
    05:00 +12°C° 0 mm 2 mps 744 mmHg 88%
    06:00 +12°C° 0 mm 2 mps 745 mmHg 88%
    07:00 +12°C° 0 mm 2 mps 745 mmHg 88%
    08:00 +14°C° 0 mm 2 mps 745 mmHg 82%
    09:00 +15°C° 0 mm 1 mps 746 mmHg 76%
    10:00 +18°C° 0 mm 1 mps 746 mmHg 70%
    11:00 +18°C° 0.1 mm 1 mps 746 mmHg 67%
    12:00 +19°C° 0.1 mm 1 mps 746 mmHg 64%
    13:00 +19°C° 0.1 mm 1 mps 746 mmHg 61%
    14:00 +18°C° 0 mm 1 mps 746 mmHg 67%
    15:00 +16°C° 0 mm 1 mps 746 mmHg 73%
    16:00 +16°C° 0 mm 1 mps 746 mmHg 79%
    17:00 +15°C° 0 mm 1 mps 746 mmHg 81%
    18:00 +13°C° 0 mm 0 mps 746 mmHg 84%
    19:00 +13°C° 0 mm 0 mps 746 mmHg 86%
    20:00 +12°C° 0 mm 0 mps 746 mmHg 86%
    21:00 +13°C° 0 mm 1 mps 746 mmHg 86%
    22:00 +13°C° 0 mm 1 mps 746 mmHg 86%
    23:00 +13°C° 0 mm 1 mps 746 mmHg 85%
    Show more